GW3604 Weather Reports


time (UTC)temp
C
wind
direction
speed
KPH
gust
KPH
rain 1hr
cm
rain 24hr
cm
rain mn
cm
humidity
%
barometer
mb
20260505003003 18 186 3.2 17.7 0.00 0.00 0.00 36 1007.4
20260505002502 18 177 3.2 17.7 0.00 0.00 0.00 35 1007.3
20260505002003 19 174 1.6 17.7 0.00 0.00 0.00 33 1007.1
20260505001503 19 144 0.0 6.4 0.00 0.00 0.00 33 1007.0
20260505001003 20 0 0.0 0.0 0.00 0.00 0.00 31 1006.8
20260505000503 20 0 0.0 0.0 0.00 0.00 0.00 31 1006.8
20260505000003 20 209 0.0 4.8 0.00 0.00 0.00 31 1006.7
20260504235502 20 200 0.0 4.8 0.00 0.00 0.00 31 1006.5
20260504235003 20 146 0.0 1.6 0.00 0.00 0.00 30 1006.4
20260504234502 20 0 0.0 0.0 0.00 0.00 0.00 29 1006.4
20260504234003 20 0 0.0 0.0 0.00 0.00 0.00 29 1006.3
20260504233503 20 254 0.0 9.7 0.00 0.00 0.00 29 1006.3
20260504233003 20 219 1.6 16.1 0.00 0.00 0.00 29 1006.2
20260504232503 21 209 1.6 16.1 0.00 0.00 0.00 28 1006.1
20260504232003 21 226 1.6 14.5 0.00 0.00 0.00 28 1006.0
20260504231003 21 222 1.6 12.9 0.00 0.00 0.00 27 1005.9
20260504230502 21 207 1.6 12.9 0.00 0.00 0.00 28 1005.8
20260504224503 21 178 1.6 11.3 0.00 0.00 0.00 28 1005.7
20260504223503 21 229 1.6 9.7 0.00 0.00 0.00 27 1005.6
20260504223003 22 248 3.2 9.7 0.00 0.00 0.00 28 1005.5
20260504222503 22 248 1.6 9.7 0.00 0.00 0.00 28 1005.5
20260504222003 22 253 1.6 11.3 0.00 0.00 0.00 28 1005.5
20260504221503 22 254 1.6 16.1 0.00 0.00 0.00 28 1005.4
20260504221003 22 242 1.6 16.1 0.00 0.00 0.00 27 1005.4
20260504220502 22 224 3.2 12.9 0.00 0.00 0.00 27 1005.5
20260504220003 22 242 4.8 17.7 0.00 0.00 0.00 27 1005.4
20260504215003 22 267 3.2 11.3 0.00 0.00 0.00 27 1005.5
20260504214503 22 299 1.6 16.1 0.00 0.00 0.00 28 1005.4
20260504214003 22 304 1.6 16.1 0.00 0.00 0.00 28 1005.5
20260504213502 22 267 0.0 6.4 0.00 0.00 0.00 27 1005.6
20260504213003 22 277 1.6 8.0 0.00 0.00 0.00 27 1005.6
20260504212503 22 270 3.2 19.3 0.00 0.00 0.00 28 1005.6
20260504212002 22 270 4.8 19.3 0.00 0.00 0.00 25 1005.7
20260504210503 23 289 4.8 22.5 0.00 0.00 0.00 26 1005.5
20260504205002 23 254 3.2 11.3 0.00 0.00 0.00 28 1005.5
20260504203503 23 273 3.2 9.7 0.00 0.00 0.00 24 1005.6
20260504203002 23 270 3.2 9.7 0.00 0.00 0.00 26 1005.6
20260504202502 23 234 3.2 14.5 0.00 0.00 0.00 23 1005.7
20260504202003 23 240 4.8 14.5 0.00 0.00 0.00 23 1005.7
20260504201503 23 223 3.2 14.5 0.00 0.00 0.00 25 1005.5
20260504201002 23 223 3.2 17.7 0.00 0.00 0.00 23 1005.6
20260504200503 23 282 3.2 17.7 0.00 0.00 0.00 24 1005.5
20260504200003 22 256 4.8 17.7 0.00 0.00 0.00 26 1005.5
20260504195502 22 232 4.8 17.7 0.00 0.00 0.00 24 1005.6
20260504194003 22 270 4.8 29.0 0.00 0.00 0.00 25 1005.7
20260504193503 22 286 3.2 11.3 0.00 0.00 0.00 28 1005.7
20260504193003 22 271 3.2 11.3 0.00 0.00 0.00 27 1005.7
20260504192503 22 228 4.8 20.9 0.00 0.00 0.00 27 1005.8
20260504192003 23 227 4.8 20.9 0.00 0.00 0.00 24 1005.8
20260504191502 23 227 4.8 20.9 0.00 0.00 0.00 24 1005.8
20260504191003 23 223 4.8 20.9 0.00 0.00 0.00 24 1005.8
20260504190502 23 229 4.8 20.9 0.00 0.00 0.00 23 1005.8
20260504190003 23 220 3.2 20.9 0.00 0.00 0.00 22 1005.8
20260504185503 23 244 4.8 16.1 0.00 0.00 0.00 21 1005.8
20260504185003 23 269 4.8 16.1 0.00 0.00 0.00 21 1006.0
20260504184503 23 254 4.8 17.7 0.00 0.00 0.00 23 1005.9
20260504184003 23 254 4.8 17.7 0.00 0.00 0.00 22 1006.0
20260504182502 23 257 4.8 24.1 0.00 0.00 0.00 25 1006.3
20260504182003 23 272 4.8 14.5 0.00 0.00 0.00 24 1006.3
20260504181503 23 279 3.2 12.9 0.00 0.00 0.00 24 1006.3
20260504181002 23 292 3.2 14.5 0.00 0.00 0.00 22 1006.3
20260504180503 23 281 4.8 14.5 0.00 0.00 0.00 25 1006.3
20260504175503 23 279 4.8 17.7 0.00 0.00 0.00 24 1006.4
20260504175003 23 269 4.8 14.5 0.00 0.00 0.00 24 1006.3
20260504174503 23 277 4.8 14.5 0.00 0.00 0.00 23 1006.5
20260504173503 22 260 4.8 16.1 0.00 0.00 0.00 23 1006.6
20260504173003 22 281 4.8 16.1 0.00 0.00 0.00 24 1006.6
20260504172502 22 284 6.4 17.7 0.00 0.00 0.00 27 1006.7
20260504172002 22 287 6.4 17.7 0.00 0.00 0.00 27 1006.7
20260504171503 22 301 6.4 16.1 0.00 0.00 0.00 27 1006.6
20260504171002 22 293 6.4 16.1 0.00 0.00 0.00 26 1006.8
20260504150503 20 223 4.8 20.9 0.00 0.00 0.00 31 1007.9
20260504141003 17 234 3.2 16.1 0.00 0.00 0.00 35 1008.4
20260504140502 17 269 1.6 11.3 0.00 0.00 0.00 36 1008.4
20260504130503 13 234 3.2 17.7 0.00 0.00 0.00 44 1009.0
20260504110502 7 0 0.0 0.0 0.00 0.08 0.00 60 1009.4
20260504100503 6 0 0.0 0.0 0.00 0.08 0.00 62 1009.6
20260504082003 6 0 0.0 0.0 0.00 0.08 0.00 63 1009.5
20260504081503 6 0 0.0 0.0 0.00 0.08 0.00 64 1009.5
20260504081003 6 0 0.0 0.0 0.00 0.08 0.00 65 1009.5
20260504080503 5 0 0.0 0.0 0.00 0.08 0.00 65 1009.5
20260504050503 2 0 0.0 0.0 0.00 0.08 0.00 80 1009.5
20260504050003 2 0 0.0 0.0 0.00 0.08 0.00 79 1009.5
20260504045503 2 0 0.0 0.0 0.00 0.08 0.00 78 1009.6
20260504045003 2 0 0.0 0.0 0.00 0.08 0.00 77 1009.7
20260504044504 2 0 0.0 0.0 0.00 0.08 0.00 77 1009.6
20260504044002 2 0 0.0 0.0 0.00 0.08 0.00 77 1009.6
20260504043003 2 0 0.0 0.0 0.00 0.08 0.00 77 1009.5
20260504042003 2 0 0.0 0.0 0.00 0.08 0.00 76 1009.6
20260504041503 2 0 0.0 0.0 0.00 0.08 0.00 76 1009.5
20260504040503 2 0 0.0 0.0 0.00 0.08 0.00 75 1009.5
20260504034503 2 0 0.0 0.0 0.00 0.08 0.08 74 1009.4
20260504033503 2 0 0.0 0.0 0.00 0.08 0.08 74 1009.4
20260504032503 3 0 0.0 0.0 0.00 0.08 0.08 72 1009.4
20260504032004 3 0 0.0 0.0 0.00 0.08 0.08 72 1009.3
20260504031503 3 0 0.0 0.0 0.00 0.08 0.08 71 1009.3
20260504031003 3 0 0.0 0.0 0.00 0.08 0.08 71 1009.4
20260504030503 3 0 0.0 0.0 0.00 0.08 0.08 70 1009.4
20260504030004 3 0 0.0 0.0 0.00 0.08 0.08 69 1009.4
20260504025503 3 0 0.0 0.0 0.00 0.08 0.08 69 1009.3
20260504024503 3 0 0.0 0.0 0.00 0.08 0.08 68 1009.3
20260504023503 4 0 0.0 0.0 0.00 0.08 0.08 67 1009.2
20260504023003 4 0 0.0 0.0 0.00 0.08 0.08 67 1009.2
20260504021503 5 0 0.0 0.0 0.00 0.08 0.08 65 1009.1
20260504021003 5 0 0.0 0.0 0.00 0.08 0.08 64 1009.1
20260504020503 5 0 0.0 0.0 0.00 0.08 0.08 64 1009.0
20260504020004 5 0 0.0 0.0 0.00 0.08 0.08 63 1009.0
20260504015503 5 0 0.0 0.0 0.00 0.08 0.08 62 1009.0
20260504015003 5 0 0.0 0.0 0.00 0.08 0.08 62 1008.9
20260504014503 6 0 0.0 0.0 0.00 0.08 0.08 62 1008.9
20260504013502 6 0 0.0 0.0 0.00 0.08 0.08 61 1008.9
20260504012503 6 0 0.0 0.0 0.00 0.08 0.08 58 1008.9
20260504012003 6 0 0.0 0.0 0.00 0.08 0.08 58 1008.8
20260504011502 7 0 0.0 0.0 0.00 0.08 0.08 57 1008.7
20260504011003 7 0 0.0 0.0 0.00 0.08 0.08 56 1008.6
20260504010503 7 0 0.0 0.0 0.00 0.08 0.08 55 1008.6
20260504010004 7 0 0.0 0.0 0.00 0.08 0.08 54 1008.5
20260504005503 7 0 0.0 0.0 0.00 0.08 0.08 54 1008.5
20260504005004 8 0 0.0 0.0 0.00 0.08 0.08 53 1008.4
20260504004503 8 0 0.0 0.0 0.00 0.08 0.08 51 1008.4
20260504004002 8 0 0.0 0.0 0.00 0.08 0.08 50 1008.4